Погода в Катармане

Филиппины     12°30′12″N   124°38′18″E
темп.,
°C
ветер,
м/с
пор.,
м/с
влажн.,
%
обл.,
%
осадки,
мм/ч
давл.,
гПа
погр.,
м
7 мая, пт
пт723:00+25в3795100 0.5 1012354
02:00+24вюв249675 0.7 1010220
05:00+24вюв249576 0.1 1011163
08:00+27в368541 0.3 1012668
11:00+30св467383 0.4 1011899
14:00+31св5667100 0.9 10081118
17:00+28св478378 0.3 1009592
20:00+26всв3593100 0.3 1010277
8 мая, сб
сб823:00+25в259452 0.2 1011258
02:00+25в239589 0.4 1009170
05:00+25в2495100 0.4 1009178
08:00+28всв357831 0.4 1010768
11:00+31всв5666100 0.1 10091221
14:00+28всв4784100 0.9 1008497
17:00+26всв3691100 2.3 1008287
20:00+25вюв259497 2.6 1010214
9 мая, вс
вс923:00+25вюв239597 0.0 1010137
02:00+24юв229596 0.0 100880
05:00+24вюв2295100 0.0 100997
08:00+27юв2484100 0.0 1010448
11:00+30с3366100 1.1 1009881
14:00+26ссв2490100 3.8 1008198
17:00+26св2590100 1.8 1008237
20:00+25в239325 1.8 1010161
10 мая, пн
пн1023:00+24вюв239480 0.1 1010109
02:00+24вюв129560 0.1 100883
05:00+24юв129591 0.0 100874
08:00+27в238258 0.0 1010388
11:00+29ссв347021 0.1 1009758
14:00+27ссв368860 2.3 1007336
17:00+27св358945 3.3 1008265
20:00+25вюв239311 3.8 1010137
11 мая, вт
вт1123:00+24юв229415 0.0 101074
02:00+24юв1295100 0.2 100870
05:00+24юв229518 0.3 100983
08:00+27в24859 0.4 1010409
11:00+29ссв347415 0.6 1009800
14:00+30ссв55675 0.9 1007924
17:00+28св46780 0.0 1007675
20:00+26в23900 0.2 1009197